"2016-06-07 00:00:00",1700571,3.049,318.5,5.781,0.221,22.15,108.5738,21.23,22.32,24.86,0,111.1,12.99,22.06,280.5
"2016-06-07 00:00:30",1700572,3.113,329,6.602,0.411,22.29,108.5762,21.24,22.3,24.9,0,111.1,12.99,22.06,291.0
"2016-06-07 00:01:00",1700573,3.209,338.5,3.319,0.215,22.56,108.5793,21.25,22.28,24.87,0,111.1,12.99,22.07,300.5
"2016-06-07 00:01:30",1700574,2.968,343.4,4.079,0.221,22.46,108.5857,21.26,22.29,24.93,0,111.1,12.99,22.09,305.4
"2016-06-07 00:02:00",1700575,2.905,345.4,4.195,0.171,22.55,108.5814,21.25,22.27,24.96,0,111.1,12.99,22.08,307.4
"2016-06-07 00:02:30",1700576,3.157,339.4,4.289,0.184,22.63,108.5784,21.24,22.26,25.03,0,111.1,12.98,22.07,301.4
"2016-06-07 00:03:00",1700577,2.759,345.7,8.29,0.622,22.72,108.5793,21.25,22.25,25.86,0,111.1,12.98,22.07,307.7
"2016-06-07 00:03:30",1700578,2.094,357.2,5.221,0.542,22.62,108.574,21.23,22.25,26.9,0,111.1,12.99,22.06,319.2
"2016-06-07 00:04:00",1700579,1.325,2.196,7.257,0.545,22.6,108.562,21.2,22.25,25.44,0,111.1,12.98,22.03,324.2
"2016-06-07 00:04:30",1700580,1.584,11.48,13.54,0.631,22.6,108.5595,21.2,22.24,26.45,0,111.1,12.98,22.02,333.5
"2016-06-07 00:05:00",1700581,2.258,355.3,9.03,0.414,22.66,108.559,21.19,22.22,28.16,0,111.1,12.99,22.02,317.3
"2016-06-07 00:05:30",1700582,1.988,357.6,7.448,0.309,22.72,108.563,21.2,22.23,28.18,0,111.1,12.99,22.03,319.6
"2016-06-07 00:06:00",1700583,1.442,346.8,9.99,0.213,22.58,108.5654,21.21,22.22,28.92,0,111.1,12.99,22.04,308.8
"2016-06-07 00:06:30",1700584,1.037,12.89,12.1,0.394,22.7,108.5663,21.21,22.22,29.37,0,111.1,12.99,22.04,334.9
"2016-06-07 00:07:00",1700585,1.715,333.9,6.859,0.32,22.58,108.5663,21.21,22.22,29.63,0,111.1,12.99,22.04,295.9
"2016-06-07 00:07:30",1700586,2.614,333.2,6.259,0.231,22.39,108.5663,21.21,22.22,26.72,0,111.1,12.99,22.04,295.2
"2016-06-07 00:08:00",1700587,2.877,349.4,3.548,0.313,22.55,108.5666,21.21,22.2,26.24,0,111.1,12.99,22.04,311.4
"2016-06-07 00:08:30",1700588,2.804,348,3.094,0.23,22.65,108.5666,21.21,22.21,27.19,0,111.1,12.99,22.04,310.0
"2016-06-07 00:09:00",1700589,2.613,351.3,5.317,0.317,22.66,108.5666,21.21,22.21,28.17,0,111.1,12.99,22.04,313.3
"2016-06-07 00:09:30",1700590,2.053,356.9,6.812,0.526,22.64,108.5666,21.21,22.21,28.13,0,111.1,12.99,22.04,318.9
"2016-06-07 00:10:00",1700591,1.937,356.4,5.932,0.498,22.57,108.5666,21.21,22.21,27.27,0,111.1,12.99,22.04,318.4
"2016-06-07 00:10:30",1700592,1.78,357.7,6.604,0.451,22.58,108.5666,21.21,22.2,27.52,0,111.1,13,22.04,319.7
"2016-06-07 00:11:00",1700593,2.069,353.8,7.274,0.289,22.57,108.5666,21.21,22.19,27.48,0,111.1,13,22.04,315.8
"2016-06-07 00:11:30",1700594,2.435,357.7,5.992,0.437,22.55,108.5666,21.21,22.19,27.63,0,111.1,13,22.04,319.7
"2016-06-07 00:12:00",1700595,1.926,6.468,10.58,0.668,22.57,108.5663,21.21,22.19,27.8,0,111.1,13,22.04,328.5
"2016-06-07 00:12:30",1700596,1.819,4.382,10.95,0.39,22.53,108.5663,21.21,22.18,27.2,0,111.1,13,22.04,326.4
"2016-06-07 00:13:00",1700597,1.056,6.651,9.5,0.542,22.48,108.5658,21.21,22.2,26.53,0,111.1,13,22.04,328.7
"2016-06-07 00:13:30",1700598,1.838,18.28,5.827,0.571,22.53,108.5652,21.21,22.19,27.28,0,111.1,13,22.04,340.3
"2016-06-07 00:14:00",1700599,1.808,17.46,6.45,0.523,22.53,108.5638,21.21,22.18,27.55,0,111.1,13,22.03,339.5
"2016-06-07 00:14:30",1700600,2.311,22.45,4.199,0.422,22.5,108.5618,21.2,22.18,27.48,0,111.1,13,22.03,344.5
"2016-06-07 00:15:00",1700601,1.365,15.35,6.625,0.582,22.5,108.5607,21.2,22.18,27.51,0,111.1,13,22.02,337.4
"2016-06-07 00:15:30",1700602,2.352,19.1,5.573,0.654,22.48,108.5582,21.19,22.18,27.31,0,111.1,13,22.02,341.1
"2016-06-07 00:16:00",1700603,1.451,15.38,4.798,0.495,22.54,108.5568,21.19,22.18,26.9,0,111.1,13,22.01,337.4
"2016-06-07 00:16:30",1700604,1.724,15.18,6.276,0.492,22.52,108.552,21.18,22.19,26.58,0,111.1,13,22.00,337.2
"2016-06-07 00:17:00",1700605,1.48,15.22,6.594,0.515,22.49,108.55,21.17,22.18,26.4,0,111.1,13,22.00,337.2
"2016-06-07 00:17:30",1700606,2.054,17.03,4.174,0.633,22.5,108.5466,21.16,22.18,26.49,0,111.1,13,21.99,339.0
"2016-06-07 00:18:00",1700607,2.135,12.75,4.299,0.391,22.49,108.5374,21.14,22.18,26.15,0,111.1,13,21.96,334.8
"2016-06-07 00:18:30",1700608,2.547,21.1,3.034,0.418,22.59,108.5346,21.13,22.17,25.9,0,111.1,12.99,21.96,343.1
"2016-06-07 00:19:00",1700609,2,18.04,4.046,0.475,22.5,108.5332,21.13,22.18,25.63,0,111.1,12.99,21.95,340.0
"2016-06-07 00:19:30",1700610,2.326,19.78,2.549,0.386,22.47,108.5329,21.13,22.17,25.4,0,111.1,12.99,21.95,341.8
"2016-06-07 00:20:00",1700611,2.664,19.87,3.825,0.281,22.46,108.5329,21.13,22.18,25.11,0,111.1,12.99,21.95,341.9
"2016-06-07 00:20:30",1700612,2.938,21.76,3.753,0.481,22.53,108.5338,21.13,22.18,25.19,0,111.1,12.99,21.96,343.8
"2016-06-07 00:21:00",1700613,3.547,24.31,2.301,0.355,22.47,108.5332,21.13,22.19,25.63,0,111.1,12.99,21.95,346.3
"2016-06-07 00:21:30",1700614,3.791,24.39,3.103,0.389,22.54,108.5335,21.13,22.18,26.18,0,111.1,12.99,21.95,346.4
"2016-06-07 00:22:00",1700615,3.573,28.97,4.056,0.514,22.49,108.535,21.13,22.18,26.52,0,111.1,12.99,21.96,351.0
"2016-06-07 00:22:30",1700616,4.361,33.36,4.639,0.485,22.69,108.5381,21.14,22.19,28.27,0,111.1,12.99,21.97,355.4
"2016-06-07 00:23:00",1700617,4.28,22.14,2.346,0.206,22.53,108.5436,21.15,22.17,27.44,0,111.1,12.99,21.98,344.1
"2016-06-07 00:23:30",1700618,4.164,26.21,3.445,0.412,22.45,108.5439,21.16,22.16,26.1,0,111,12.99,21.98,348.2
"2016-06-07 00:24:00",1700619,3.422,22.46,4.398,0.405,22.44,108.5467,21.16,22.16,25.75,0,111.1,13,21.99,344.5
"2016-06-07 00:24:30",1700620,3.224,27.71,3.893,0.537,22.46,108.5484,21.17,22.16,26.04,0,111,13,21.99,349.7
"2016-06-07 00:25:00",1700621,2.724,58.84,10.42,0.321,22.73,108.5479,21.17,22.15,31.71,0,111,13,21.99,20.8
"2016-06-07 00:25:30",1700622,3.414,73.85,4.443,0.48,22.82,108.5462,21.16,22.17,32.43,0,111,13,21.99,35.8
"2016-06-07 00:26:00",1700623,3.003,74.44,6.09,0.298,22.8,108.546,21.16,22.18,33.56,0,111,13,21.99,36.4
"2016-06-07 00:26:30",1700624,2.632,74.61,2.453,0.152,22.76,108.546,21.16,22.16,33.21,0,111,13,21.99,36.6
"2016-06-07 00:27:00",1700625,2.958,74.34,4.186,0.199,22.79,108.5443,21.16,22.16,32.93,0,111,13,21.98,36.3
"2016-06-07 00:27:30",1700626,2.337,63.76,3.097,0.568,22.76,108.5385,21.14,22.16,33.21,0,111,13,21.97,25.8
"2016-06-07 00:28:00",1700627,1.418,59.83,7.902,0.273,22.78,108.5323,21.13,22.15,33.62,0,111,13.01,21.95,21.8
"2016-06-07 00:28:30",1700628,1.378,35.4,8.39,0.213,22.78,108.5336,21.13,22.14,33.97,0,111,13.01,21.95,357.4
"2016-06-07 00:29:00",1700629,1.718,13.42,19.36,1.415,22.73,108.5336,21.13,22.14,32.4,0,111,13.01,21.95,335.4
"2016-06-07 00:29:30",1700630,2.801,26.32,11.65,0.627,22.59,108.5351,21.13,22.11,30.35,0,111,13.01,21.96,348.3
"2016-06-07 00:30:00",1700631,2.38,11.99,8.3,0.613,22.44,108.5354,21.13,22.12,28.3,0,111,13.01,21.96,334.0
"2016-06-07 00:30:30",1700632,2.852,17.96,4.939,0.954,22.44,108.5354,21.13,22.11,27.79,0,111,13.01,21.96,340.0
"2016-06-07 00:31:00",1700633,3.629,31.07,8.31,0.58,22.68,108.5358,21.13,22.09,28.94,0,111,13.01,21.96,353.1
"2016-06-07 00:31:30",1700634,2.741,14.11,7.179,0.831,22.38,108.5355,21.13,22.09,28.51,0,111.1,13.01,21.96,336.1
"2016-06-07 00:32:00",1700635,1.647,5.957,6.179,0.404,22.35,108.5304,21.12,22.1,27.16,0,111,13.01,21.95,328.0
"2016-06-07 00:32:30",1700636,1.537,1.452,10.86,0.763,22.27,108.5166,21.09,22.08,27.09,0,111,13.01,21.91,323.5
"2016-06-07 00:33:00",1700637,1.363,0.085,13.85,0.638,22.26,108.5026,21.05,22.07,26.16,0,111,13.01,21.87,322.1
"2016-06-07 00:33:30",1700638,1.305,350,7.835,0.561,22.15,108.4894,21.02,22.04,26.18,0,111.1,13.01,21.84,312.0
"2016-06-07 00:34:00",1700639,1.432,350,5.155,0.572,21.88,108.4593,20.94,22,27.21,0,111,13.01,21.76,312.0
"2016-06-07 00:34:30",1700640,2.013,340.3,9.72,0.506,21.27,108.3867,20.75,21.91,30.93,0,111,13.01,21.58,302.3
"2016-06-07 00:35:00",1700641,2.261,346.1,4.875,0.293,20.8,108.2642,20.44,21.76,38.39,0,111,13.01,21.26,308.1
"2016-06-07 00:35:30",1700642,1.128,16.74,9.94,0.489,20.91,108.1379,20.11,21.55,42.33,0,111,13.01,20.94,338.7
"2016-06-07 00:36:00",1700643,1.449,21.28,5.341,0.692,20.99,108.0685,19.94,21.36,43.73,0,111,13,20.76,343.3
"2016-06-07 00:36:30",1700644,2.636,45.15,11.14,0.769,20.86,108.0097,19.78,21.21,46.57,0,111,13,20.61,7.2
"2016-06-07 00:37:00",1700645,4.771,47.56,4.617,0.75,20.81,107.9406,19.61,21.04,48.13,0,111,13,20.43,9.6
"2016-06-07 00:37:30",1700646,5.798,51.17,5.824,0.496,20.68,107.9276,19.57,20.91,49.36,0,111,13,20.39,13.2
"2016-06-07 00:38:00",1700647,5.13,52.21,6.722,0.804,20.93,107.9167,19.55,20.83,48.89,0,111,13,20.37,14.2
"2016-06-07 00:38:30",1700648,5.785,54.84,8.6,1.887,20.7,107.8959,19.49,20.79,50.16,0,111,13,20.31,16.8
"2016-06-07 00:39:00",1700649,8.46,55.79,5.143,0.699,20.93,107.8877,19.47,20.72,49.74,0,111,13,20.29,17.8
"2016-06-07 00:39:30",1700650,6.445,41.7,3.425,0.744,20.34,107.8613,19.4,20.67,51.35,0,111,13,20.22,3.7
"2016-06-07 00:40:00",1700651,4.785,59.86,15.23,0.407,20.43,107.8194,19.3,20.6,52.41,0,111,13,20.12,21.9
"2016-06-07 00:40:30",1700652,5.582,64.59,7.006,1.875,20.65,107.7446,19.1,20.46,52.38,0,111,13,19.92,26.6
"2016-06-07 00:41:00",1700653,8.64,61.07,1.623,0.19,20.66,107.6931,18.97,20.31,50.17,0,111,13,19.79,23.1
"2016-06-07 00:41:30",1700654,8.53,66.02,3.173,0.763,20.96,107.6662,18.9,20.22,49.96,0,111,13,19.72,28.0
"2016-06-07 00:42:00",1700655,9.14,66.81,2.315,0.861,20.91,107.6369,18.83,20.14,50.74,0,111,13.01,19.65,28.8
"2016-06-07 00:42:30",1700656,9.65,67,3.258,0.542,20.59,107.6035,18.74,20.08,51.44,0,111,13.01,19.56,29.0
"2016-06-07 00:43:00",1700657,8.32,69.1,5.417,0.581,20.45,107.5664,18.65,20.01,51.56,0,111,13.01,19.46,31.1
"2016-06-07 00:43:30",1700658,6.669,67.67,6.997,0.964,20.11,107.5321,18.56,19.93,52.75,0,111,13.01,19.38,29.7
"2016-06-07 00:44:00",1700659,8.05,67.82,5.23,0.546,20.26,107.4956,18.47,19.85,52.2,0,111,13.01,19.28,29.8
"2016-06-07 00:44:30",1700660,8.82,76.97,2.735,0.467,21.24,107.4628,18.38,19.78,50.97,0,111,13.01,19.20,39.0
"2016-06-07 00:45:00",1700661,7.088,69.73,9.43,0.791,20.69,107.426,18.29,19.7,50.86,0,111,13.01,19.10,31.7
"2016-06-07 00:45:30",1700662,7.022,83.2,6.046,0.435,20.89,107.3899,18.19,19.59,50.95,0,111,13.01,19.01,45.2
"2016-06-07 00:46:00",1700663,7.405,91.6,3.63,0.691,22.03,107.3564,18.11,19.49,50.45,0,111,13.01,18.92,53.6
"2016-06-07 00:46:30",1700664,6.743,85.5,3.727,0.846,20.76,107.3385,18.06,19.42,51.26,0,111,13.02,18.88,47.5
"2016-06-07 00:47:00",1700665,6.56,87.6,1.898,0.525,21.44,107.3157,18,19.34,52.25,0,111,13.02,18.82,49.6
"2016-06-07 00:47:30",1700666,7.162,89.3,2.927,0.232,21.57,107.2912,17.94,19.27,50.49,0,111,13.02,18.76,51.3
"2016-06-07 00:48:00",1700667,6.691,90.5,3.39,0.281,21.42,107.2719,17.89,19.19,50.42,0,111,13.02,18.71,52.5
"2016-06-07 00:48:30",1700668,7.392,86.9,5.616,1.034,19.96,107.2561,17.85,19.15,51.98,0,111,13.02,18.67,48.9
"2016-06-07 00:49:00",1700669,5.472,89.1,6.853,0.801,19.62,107.2097,17.73,19.06,55.48,0,110.9,13.02,18.55,51.1
"2016-06-07 00:49:30",1700670,7.717,99.9,6.401,2.462,18.86,107.0981,17.45,18.86,57.19,0,111,13.02,18.26,61.9
"2016-06-07 00:50:00",1700671,11.18,105.4,2.564,0.568,19.75,107.0424,17.3,18.71,57.95,0,110.9,13.02,18.12,67.4
"2016-06-07 00:50:30",1700672,11.67,105.6,1.988,0.296,21.69,106.998,17.19,18.58,57.62,0,110.9,13.02,18.00,67.6
"2016-06-07 00:51:00",1700673,10.81,107.2,2.286,0.519,22.56,106.9538,17.08,18.49,57.39,0,110.9,13.02,17.89,69.2
"2016-06-07 00:51:30",1700674,10.56,104.9,2.096,0.512,21.83,106.9192,16.99,18.36,57.17,0,110.9,13.02,17.80,66.9
"2016-06-07 00:52:00",1700675,10.16,113.3,2.764,0.413,18.41,106.89,16.91,18.3,58.47,0,110.9,13.02,17.72,75.3
"2016-06-07 00:52:30",1700676,9.66,115.7,4.096,0.47,18.62,106.8582,16.83,18.21,59.35,0,110.9,13.03,17.64,77.7
"2016-06-07 00:53:00",1700677,9.7,120.2,5.052,0.7,19.39,106.8315,16.76,18.14,59.35,0,110.9,13.02,17.57,82.2
"2016-06-07 00:53:30",1700678,9.33,126.8,2.928,0.431,21.51,106.8163,16.72,18.07,59.31,0,110.9,13.02,17.53,88.8
"2016-06-07 00:54:00",1700679,8.88,127.6,3.389,0.4,16.68,106.7913,16.66,18.01,59.47,0,110.9,13.02,17.47,89.6
"2016-06-07 00:54:30",1700680,9.23,121.3,4.378,0.905,16.41,106.7843,16.64,17.94,59.42,0,110.9,13.01,17.45,83.3
"2016-06-07 00:55:00",1700681,8.88,129.4,3.738,0.458,20.97,106.7849,16.64,17.91,59.95,0,110.9,13.01,17.45,91.4
"2016-06-07 00:55:30",1700682,7.422,127.4,3.031,0.958,20.73,106.7702,16.61,17.86,60.32,0,110.9,13.01,17.42,89.4
"2016-06-07 00:56:00",1700683,7.157,127,2.77,0.361,22.17,106.7634,16.59,17.81,59.52,0,110.9,13.01,17.40,89.0
"2016-06-07 00:56:30",1700684,7.132,129.2,3.107,0.87,22.04,106.77,16.61,17.78,59.32,0,110.9,13.01,17.42,91.2
"2016-06-07 00:57:00",1700685,6.235,131.9,4.601,0.727,22.46,106.7745,16.62,17.76,58.49,0,110.9,13.02,17.43,93.9
"2016-06-07 00:57:30",1700686,6.136,132.4,6.468,0.784,21.87,106.7787,16.63,17.74,58.45,0,110.9,13.02,17.44,94.4
"2016-06-07 00:58:00",1700687,7.291,130.7,3.123,0.785,22.13,106.7999,16.68,17.73,59.28,0,110.9,13.01,17.49,92.7
"2016-06-07 00:58:30",1700688,7.453,127,2.525,0.477,19.27,106.816,16.72,17.73,58.91,0,110.9,13.02,17.53,89.0
"2016-06-07 00:59:00",1700689,7.371,126.5,1.672,0.218,22.65,106.8197,16.73,17.74,58.65,0,110.9,13.03,17.54,88.5
"2016-06-07 00:59:30",1700690,7.581,126.7,1.214,0.272,19.21,106.8391,16.78,17.76,58.79,0,110.9,13.03,17.59,88.7
"2016-06-07 01:00:00",1700691,8.4,125.4,3.405,0.545,21.63,106.8535,16.82,17.76,58.83,0,110.9,13.03,17.63,87.4
"2016-06-07 01:00:30",1700692,9.45,124.3,1.636,0.422,16.03,106.8583,16.83,17.79,57.88,0,110.9,13.03,17.64,86.3
"2016-06-07 01:01:00",1700693,9.47,121.3,2.138,0.252,21.12,106.8726,16.87,17.78,56.35,0,110.9,13.03,17.68,83.3
"2016-06-07 01:01:30",1700694,9.23,121.9,1.91,0.289,21.35,106.8858,16.9,17.81,56.01,0,110.9,13.03,17.71,83.9
"2016-06-07 01:02:00",1700695,8.91,121.3,2.106,0.261,21.35,106.8872,16.91,17.8,56.01,0,110.9,13.03,17.72,83.3
"2016-06-07 01:02:30",1700696,8.92,125.8,1.114,0.312,21.19,106.8872,16.91,17.84,56.21,0,110.8,13.03,17.72,87.8
"2016-06-07 01:03:00",1700697,8.87,125.1,1.815,0.315,20.86,106.8872,16.91,17.84,55.14,0,110.8,13.03,17.72,87.1
"2016-06-07 01:03:30",1700698,8.51,126.1,1.799,0.269,20.94,106.8872,16.91,17.84,55.27,0,110.8,13.03,17.72,88.1
"2016-06-07 01:04:00",1700699,8.84,125.2,1.55,0.376,21.12,106.8872,16.91,17.87,55.03,0,110.8,13.03,17.72,87.2
"2016-06-07 01:04:30",1700700,7.709,123.8,2.3,0.208,20.95,106.8872,16.91,17.85,55.16,0,110.8,13.03,17.72,85.8
"2016-06-07 01:05:00",1700701,7.769,125.7,1.996,0.26,20.85,106.8872,16.91,17.86,55.2,0,110.8,13.03,17.72,87.7
"2016-06-07 01:05:30",1700702,8.06,124.1,3.791,0.494,20.9,106.8872,16.91,17.88,55.23,0,110.8,13.03,17.72,86.1
"2016-06-07 01:06:00",1700703,7.365,124.3,2.243,0.288,20.69,106.8872,16.91,17.87,55.23,0,110.8,13.03,17.72,86.3
"2016-06-07 01:06:30",1700704,7.094,125.6,2.457,0.294,20.77,106.8872,16.91,17.88,55.28,0,110.8,13.03,17.72,87.6
"2016-06-07 01:07:00",1700705,7.717,128.2,1.292,0.389,20.95,106.8872,16.91,17.89,55.17,0,110.8,13.03,17.72,90.2
"2016-06-07 01:07:30",1700706,7.645,125,2.772,0.269,20.67,106.8902,16.91,17.9,55.58,0,110.8,13.03,17.72,87.0
"2016-06-07 01:08:00",1700707,7.246,124.3,3.008,0.228,20.9,106.8923,16.92,17.91,55.87,0,110.8,13.03,17.73,86.3
"2016-06-07 01:08:30",1700708,7.546,130.2,1.974,0.19,20.77,106.8978,16.93,17.92,55.72,0,110.8,13.03,17.74,92.2
"2016-06-07 01:09:00",1700709,7.569,132.5,1.92,0.248,20.8,106.9023,16.94,17.92,55.77,0,110.8,13.04,17.76,94.5
"2016-06-07 01:09:30",1700710,7.15,134.1,1.618,0.204,20.86,106.9054,16.95,17.93,56,0,110.8,13.04,17.76,96.1
"2016-06-07 01:10:00",1700711,6.753,132.9,2.116,0.256,20.78,106.9214,16.99,17.94,56.04,0,110.8,13.04,17.81,94.9
"2016-06-07 01:10:30",1700712,7.219,135.5,2.542,0.352,20.26,106.9303,17.02,17.95,56.17,0,110.8,13.03,17.83,97.5
"2016-06-07 01:11:00",1700713,7.297,134.7,2.996,0.684,20.53,106.9295,17.01,17.96,56.23,0,110.8,13.03,17.83,96.7
"2016-06-07 01:11:30",1700714,8.52,135.5,2.977,0.579,20.39,106.9335,17.02,17.96,56.27,0,110.8,13.03,17.84,97.5
"2016-06-07 01:12:00",1700715,7.394,136.4,2.285,0.494,20.92,106.926,17.01,17.97,56.26,0,110.8,13.03,17.82,98.4
"2016-06-07 01:12:30",1700716,7.469,138.1,2.039,0.192,20.99,106.9268,17.01,17.97,56.23,0,110.8,13.03,17.82,100.1
"2016-06-07 01:13:00",1700717,8.83,137.4,2.769,0.526,20.56,106.9289,17.01,17.97,56.34,0,110.8,13.03,17.82,99.4
"2016-06-07 01:13:30",1700718,8.52,140.9,4.795,0.699,20.83,106.9266,17.01,17.98,56.54,0,110.8,13.03,17.82,102.9
"2016-06-07 01:14:00",1700719,7.066,137.8,4.02,0.507,21.1,106.9272,17.01,17.98,56.64,0,110.8,13.03,17.82,99.8
"2016-06-07 01:14:30",1700720,6.901,142.5,3.991,0.32,20.86,106.9371,17.03,17.98,56.47,0,110.8,13.03,17.85,104.5
"2016-06-07 01:15:00",1700721,7.369,136.6,3.403,0.381,20.89,106.947,17.06,17.99,56.58,0,110.8,13.03,17.87,98.6
"2016-06-07 01:15:30",1700722,7.462,139.8,2.654,0.188,20.9,106.949,17.06,17.99,56.61,0,110.8,13.03,17.88,101.8
"2016-06-07 01:16:00",1700723,7.618,140.5,3.732,0.402,21.03,106.9501,17.07,18.01,56.75,0,110.8,13.03,17.88,102.5
"2016-06-07 01:16:30",1700724,6.352,141.5,2.079,0.345,21.22,106.9557,17.08,18.01,56.86,0,110.8,13.04,17.89,103.5
"2016-06-07 01:17:00",1700725,6.886,143.8,1.955,0.205,21.2,106.9571,17.09,18.01,56.89,0,110.8,13.04,17.90,105.8
"2016-06-07 01:17:30",1700726,6.364,142.4,3.706,0.34,21.23,106.9571,17.09,18.03,56.94,0,110.8,13.04,17.90,104.4
"2016-06-07 01:18:00",1700727,6.511,142.2,2.523,0.258,21.05,106.9571,17.09,18.03,57,0,110.8,13.04,17.90,104.2
"2016-06-07 01:18:30",1700728,6.529,140.6,2.637,0.315,21.04,106.965,17.11,18.05,57.31,0,110.8,13.04,17.92,102.6
"2016-06-07 01:19:00",1700729,6.421,143.2,2.175,0.255,21.02,106.9816,17.15,18.05,57.22,0,110.8,13.04,17.96,105.2
"2016-06-07 01:19:30",1700730,7.066,139.7,2.027,0.348,20.92,106.9869,17.16,18.06,57.11,0,110.8,13.04,17.97,101.7
"2016-06-07 01:20:00",1700731,7.414,139.7,1.913,0.272,21.08,106.9906,17.17,18.09,56.61,0,110.8,13.04,17.98,101.7
"2016-06-07 01:20:30",1700732,7.402,142,1.807,0.315,21.24,106.9909,17.17,18.08,56.61,0,110.8,13.05,17.98,104.0
"2016-06-07 01:21:00",1700733,6.669,142.2,1.836,0.248,21.25,106.9909,17.17,18.11,56.76,0,110.8,13.04,17.98,104.2
"2016-06-07 01:21:30",1700734,6.898,143.9,1.401,0.113,21.09,106.9909,17.17,18.12,54.75,0,110.8,13.05,17.98,105.9
"2016-06-07 01:22:00",1700735,6.703,143,2.377,0.212,21.3,106.9965,17.19,18.12,53.68,0,110.8,13.05,18.00,105.0
"2016-06-07 01:22:30",1700736,7.237,144.3,1.604,0.308,21.33,107.0151,17.23,18.14,54.79,0,110.8,13.05,18.05,106.3
"2016-06-07 01:23:00",1700737,7.105,143.5,1.62,0.23,21.19,107.0235,17.26,18.15,52.92,0,110.8,13.05,18.07,105.5
"2016-06-07 01:23:30",1700738,7.238,140.9,2.798,0.293,21.25,107.0247,17.26,18.17,52.67,0,110.8,13.05,18.07,102.9
"2016-06-07 01:24:00",1700739,7.211,143.6,3.493,0.468,21.07,107.0277,17.27,18.19,52.38,0,110.8,13.05,18.08,105.6
"2016-06-07 01:24:30",1700740,7.348,147,2.937,0.242,21.23,107.0407,17.3,18.21,52.14,0,110.8,13.05,18.11,109.0
"2016-06-07 01:25:00",1700741,7.196,148.8,4.521,0.381,21.37,107.0564,17.34,18.22,52.24,0,110.8,13.05,18.15,110.8
"2016-06-07 01:25:30",1700742,6.057,140.9,3.44,0.29,21.35,107.0584,17.34,18.25,52.38,0,110.8,13.05,18.16,102.9
"2016-06-07 01:26:00",1700743,6.94,146.2,3.349,0.476,21.25,107.0584,17.34,18.26,51.26,0,110.8,13.05,18.16,108.2
"2016-06-07 01:26:30",1700744,6.386,155.7,4.722,0.294,21.32,107.0716,17.38,18.28,51.53,0,110.8,13.05,18.19,117.7
"2016-06-07 01:27:00",1700745,7.111,152.4,3.678,0.409,21.29,107.0897,17.43,18.3,51.54,0,110.8,13.05,18.24,114.4
"2016-06-07 01:27:30",1700746,7.14,145.4,2.628,0.449,21.28,107.0928,17.43,18.32,49.2,0,110.8,13.05,18.25,107.4
"2016-06-07 01:28:00",1700747,8.01,142.1,2.512,0.245,20.96,107.0946,17.44,18.33,48.02,0,110.8,13.04,18.25,104.1
"2016-06-07 01:28:30",1700748,8.39,138.6,1.716,0.336,20.98,107.109,17.47,18.37,48.25,0,110.8,13.04,18.29,100.6
"2016-06-07 01:29:00",1700749,8.85,139.5,5.625,0.36,20.93,107.1244,17.51,18.37,48.13,0,110.8,13.04,18.33,101.5
"2016-06-07 01:29:30",1700750,8.95,140.4,3.694,0.488,21.03,107.1317,17.53,18.42,47.83,0,110.8,13.04,18.35,102.4
"2016-06-07 01:30:00",1700751,8.26,140.5,4.043,0.456,21.2,107.1326,17.54,18.41,46.7,0,110.8,13.04,18.35,102.5
"2016-06-07 01:30:30",1700752,9.67,131.2,1.841,0.198,20.67,107.1362,17.54,18.44,48.63,0,110.8,13.04,18.36,93.2
"2016-06-07 01:31:00",1700753,10.32,131.3,1.071,0.248,20.78,107.1365,17.55,18.46,48.74,0,110.8,13.04,18.36,93.3
"2016-06-07 01:31:30",1700754,10.12,127.9,4.153,0.422,20.93,107.1374,17.55,18.47,48.33,0,110.8,13.04,18.36,89.9
"2016-06-07 01:32:00",1700755,9.13,127.1,5.139,0.877,20.86,107.1377,17.55,18.47,47.97,0,110.8,13.04,18.36,89.1
"2016-06-07 01:32:30",1700756,8.15,127.5,3.961,1.032,21.12,107.1392,17.55,18.49,47.05,0,110.8,13.04,18.37,89.5
"2016-06-07 01:33:00",1700757,7.602,127.8,4.736,0.546,21.2,107.1416,17.56,18.51,46.65,0,110.8,13.04,18.37,89.8
"2016-06-07 01:33:30",1700758,8.93,125.1,2.026,0.367,20.72,107.1515,17.58,18.53,45.99,0,110.8,13.04,18.40,87.1
"2016-06-07 01:34:00",1700759,8.32,125.3,1.756,0.453,21.01,107.1647,17.62,18.53,45.68,0,110.8,13.05,18.43,87.3
"2016-06-07 01:34:30",1700760,8.08,126.1,2.118,0.298,21.07,107.1714,17.63,18.53,45.3,0,110.8,13.05,18.45,88.1
"2016-06-07 01:35:00",1700761,8.29,121.2,3.453,0.517,21.2,107.1831,17.66,18.53,45.24,0,110.8,13.05,18.48,83.2
"2016-06-07 01:35:30",1700762,8.04,126,4.035,0.508,21.36,107.1839,17.67,18.55,44.85,0,110.8,13.05,18.48,88.0
"2016-06-07 01:36:00",1700763,7.938,122.9,3.897,0.207,21.22,107.1878,17.68,18.55,44.47,0,110.8,13.05,18.49,84.9
"2016-06-07 01:36:30",1700764,7.845,118.9,1.289,0.186,21.27,107.1954,17.7,18.58,44.26,0,110.8,13.05,18.51,80.9
"2016-06-07 01:37:00",1700765,8.21,117.4,2.118,0.567,21.01,107.2229,17.77,18.61,44.14,0,110.8,13.05,18.58,79.4
"2016-06-07 01:37:30",1700766,8.71,126.5,2.701,0.303,20.69,107.2255,17.77,18.61,43.04,0,110.8,13.05,18.59,88.5
"2016-06-07 01:38:00",1700767,9.03,127.5,1.722,0.174,20.74,107.2261,17.77,18.64,42.47,0,110.8,13.05,18.59,89.5
"2016-06-07 01:38:30",1700768,8.76,123.1,2.653,0.31,20.8,107.2267,17.78,18.64,42.66,0,110.8,13.05,18.59,85.1
"2016-06-07 01:39:00",1700769,9.42,124.9,3.158,0.661,20.84,107.2273,17.78,18.67,42.73,0,110.8,13.05,18.59,86.9
"2016-06-07 01:39:30",1700770,11.31,127.5,1.341,0.497,20.25,107.2285,17.78,18.67,43.77,0,110.8,13.05,18.60,89.5
"2016-06-07 01:40:00",1700771,11.11,127.3,0.963,0.322,20.36,107.2294,17.78,18.7,43.62,0,110.8,13.05,18.60,89.3
"2016-06-07 01:40:30",1700772,11.32,126.9,1.509,0.492,20.57,107.2297,17.78,18.69,42.96,0,110.8,13.05,18.60,88.9
"2016-06-07 01:41:00",1700773,11.43,125,0.627,0.153,20.73,107.2221,17.76,18.69,44.51,0,110.8,13.05,18.58,87.0
"2016-06-07 01:41:30",1700774,11.4,126.4,1.157,0.128,20.82,107.1988,17.7,18.69,44.78,0,110.8,13.05,18.52,88.4
"2016-06-07 01:42:00",1700775,11.48,127.2,0.651,0.183,20.91,107.1959,17.7,18.67,45.03,0,110.8,13.05,18.51,89.2
"2016-06-07 01:42:30",1700776,11.32,127.4,1.229,0.235,20.92,107.1959,17.7,18.66,45.66,0,110.8,13.05,18.51,89.4
"2016-06-07 01:43:00",1700777,11.44,129.3,0.714,0.28,21.12,107.1959,17.7,18.66,44.75,0,110.8,13.05,18.51,91.3
"2016-06-07 01:43:30",1700778,10.78,129.4,0.756,0.216,21.01,107.1959,17.7,18.63,43.31,0,110.8,13.05,18.51,91.4
"2016-06-07 01:44:00",1700779,10.62,131.3,0.722,0.214,20.96,107.1959,17.7,18.65,42.28,0,110.8,13.05,18.51,93.3
"2016-06-07 01:44:30",1700780,10.63,130.4,0.469,0.098,20.86,107.1959,17.7,18.63,42.21,0,110.8,13.05,18.51,92.4
"2016-06-07 01:45:00",1700781,10.69,131.6,0.862,0.169,20.88,107.1959,17.7,18.63,43.16,0,110.8,13.04,18.51,93.6
"2016-06-07 01:45:30",1700782,10.86,131.1,0.852,0.236,21.1,107.1959,17.7,18.64,44.98,0,110.8,13.04,18.51,93.1
"2016-06-07 01:46:00",1700783,10.54,132.6,1.541,0.179,21.09,107.1959,17.7,18.64,45.49,0,110.8,13.04,18.51,94.6
"2016-06-07 01:46:30",1700784,10.31,132.3,1.006,0.146,21.3,107.1959,17.7,18.64,44.54,0,110.8,13.04,18.51,94.3
"2016-06-07 01:47:00",1700785,10.19,130.6,1.521,0.253,21.42,107.1959,17.7,18.62,43.67,0,110.8,13.04,18.51,92.6
"2016-06-07 01:47:30",1700786,9.56,129.2,0.992,0.308,21.46,107.2027,17.71,18.65,41.57,0,110.8,13.04,18.53,91.2
"2016-06-07 01:48:00",1700787,9.31,130.3,1.296,0.161,21.41,107.2278,17.78,18.66,41.18,0,110.8,13.04,18.59,92.3